sat.trackr.live / text

‹ back to catalog

STARLINK-11747 [DTC]

NORAD 64322 · 2025-124F

PAYLOAD ACTIVE UNKNOWN

§ Identity

Operator
Country
US
Launch date
2025-06-10
Launch site
AFETR
Launch vehicle
Mass (kg)
RCS (m²)

Purposes: comms

External: N2YO · Heavens-Above · Gunter

§ Orbital elements

Epoch: 2026-05-25T02:48:21.366144Z

Period
91.67 min
Inclination
42.9980°
Eccentricity
0.0000859
Mean motion
15.70874375 rev/d
Perigee alt
355.8 km
Apogee alt
357.0 km
Semi-major
6,734.5 km
B*
1.3595e-3
RAAN
288.6045°
Arg perigee
286.3592°
Mean anomaly
73.7181°
Rev number
5,485

§ Raw data

STARLINK-11747 [DTC]1 64322U 25124F   26145.11691396  .00178042  00000+0  13595-2 0  99912 64322  42.9980 288.6045 0000859 286.3592  73.7181 15.70874375 54857

JSON: /api/v1/satellites/64322 · /tle

For live sub-satellite position, see the globe view (requires WebGL).

§ Visibility from observer

Set your observer location to see the next 7 days of passes ≥ 10°. The values pass through the URL so the page stays shareable.

No JS? Fill the form by hand. The geolocation button needs JavaScript.